QPF
0.00 0.00 0.00 0.00 0.00 0.01 0.03 0.07 0.11 0.09 0.05 0.03 0.04 0.03 0.01 0.00 0.00 0.00 0.00 0.00 0.00 0.00 0.00 0.00 0.02 0.02 0.00 0.00 0.00 0.00 0.00 0.00 0.00 0.00 0.00 0.00 0.00 0.00 0.00 0.00 0.00 0.00 0.00
0.00 0.00 0.00 0.00 0.00 0.00 0.00 0.01 0.03 0.05 0.06 0.05 0.04 0.04 0.03 0.01 0.00 0.00 0.00 0.00 0.00 0.00 0.00 0.00 0.02 0.04 0.02 0.01 0.00 0.00 0.00 0.00 0.00 0.00 0.00 0.00 0.00 0.00 0.00 0.00 0.00 0.00 0.00
0.00 0.00 0.00 0.00 0.00 0.00 0.00 0.00 0.00 0.01 0.03 0.05 0.05 0.05 0.06 0.03 0.03 0.00 0.00 0.00 0.00 0.00 0.00 0.00 0.00 0.01 0.02 0.04 0.01 0.00 0.00 0.00 0.00 0.00 0.00 0.00 0.00 0.00 0.00 0.00 0.00 0.00 0.00
0.00 0.00 0.00 0.00 0.00 0.00 0.00 0.00 0.00 0.00 0.00 0.02 0.03 0.03 0.06 0.07 0.05 0.03 0.01 0.00 0.00 0.00 0.00 0.00 0.00 0.00 0.00 0.01 0.01 0.00 0.00 0.00 0.00 0.00 0.00 0.00 0.00 0.00 0.00 0.00 0.00 0.00 0.00
0.00 0.00 0.00 0.00 0.00 0.00 0.00 0.00 0.00 0.00 0.00 0.00 0.01 0.01 0.01 0.04 0.05 0.06 0.05 0.01 0.00 0.00 0.00 0.00 0.00 0.00 0.00 0.00 0.00 0.01 0.01 0.00 0.00 0.00 0.00 0.00 0.00 0.00 0.00 0.00 0.00 0.00 0.00
0.00 0.00 0.00 0.00 0.00 0.00 0.00 0.00 0.00 0.00 0.00 0.00 0.00 0.00 0.00 0.01 0.02 0.06 0.07 0.07 0.05 0.02 0.00 0.00 0.00 0.00 0.00 0.00 0.00 0.01 0.02 0.01 0.00 0.00 0.00 0.00 0.00 0.00 0.00 0.00 0.00 0.00 0.00
0.00 0.00 0.00 0.00 0.00 0.00 0.00 0.00 0.00 0.00 0.00 0.00 0.00 0.00 0.00 0.00 0.02 0.03 0.04 0.06 0.08 0.06 0.02 0.01 0.00 0.00 0.00 0.00 0.00 0.00 0.01 0.03 0.04 0.01 0.00 0.00 0.00 0.00 0.00 0.00 0.00 0.00 0.00
0.00 0.00 0.00 0.00 0.00 0.00 0.00 0.00 0.00 0.00 0.00 0.00 0.00 0.00 0.00 0.00 0.00 0.02 0.03 0.05 0.04 0.06 0.06 0.04 0.02 0.00 0.00 0.00 0.00 0.00 0.00 0.02 0.05 0.04 0.00 0.00 0.00 0.00 0.00 0.00 0.00 0.00 0.00
0.00 0.00 0.00 0.00 0.00 0.00 0.00 0.00 0.00 0.00 0.01 0.00 0.00 0.01 0.01 0.00 0.00 0.02 0.03 0.03 0.04 0.04 0.04 0.03 0.04 0.02 0.01 0.00 0.00 0.00 0.00 0.00 0.01 0.04 0.01 0.00 0.00 0.00 0.00 0.00 0.00 0.00 0.00
0.00 0.00 0.00 0.00 0.00 0.00 0.00 0.00 0.00 0.00 0.01 0.01 0.00 0.00 0.01 0.01 0.01 0.01 0.02 0.04 0.04 0.04 0.03 0.02 0.01 0.01 0.02 0.03 0.02 0.01 0.00 0.00 0.00 0.01 0.01 0.00 0.00 0.00 0.00 0.00 0.00 0.00 0.00
0.00 0.00 0.00 0.00 0.00 0.00 0.00 0.00 0.00 0.00 0.01 0.02 0.02 0.01 0.00 0.00 0.00 0.01 0.00 0.01 0.03 0.04 0.04 0.03 0.02 0.00 0.00 0.02 0.04 0.06 0.04 0.01 0.04 0.05 0.04 0.01 0.00 0.00 0.00 0.00 0.00 0.00 0.00
0.00 0.00 0.00 0.00 0.00 0.00 0.00 0.00 0.00 0.01 0.01 0.01 0.00 0.01 0.01 0.01 0.01 0.01 0.01 0.00 0.01 0.03 0.05 0.07 0.07 0.03 0.01 0.01 0.02 0.05 0.09 0.09 0.11 0.15 0.12 0.06 0.01 0.00 0.00 0.00 0.00 0.00 0.00
0.00 0.00 0.00 0.00 0.00 0.00 0.00 0.00 0.00 0.00 0.00 0.00 0.00 0.00 0.01 0.01 0.01 0.02 0.02 0.02 0.02 0.01 0.03 0.03 0.04 0.03 0.02 0.01 0.01 0.02 0.04 0.04 0.05 0.05 0.08 0.08 0.05 0.01 0.00 0.00 0.00 0.00 0.00
0.00 0.00 0.00 0.00 0.00 0.00 0.00 0.01 0.00 0.00 0.00 0.00 0.00 0.00 0.00 0.01 0.01 0.01 0.02 0.02 0.01 0.01 0.02 0.02 0.02 0.04 0.02 0.01 0.01 0.01 0.02 0.02 0.03 0.02 0.01 0.02 0.03 0.02 0.00 0.00 0.00 0.00 0.00
0.00 0.00 0.00 0.00 0.00 0.00 0.00 0.00 0.00 0.00 0.00 0.00 0.00 0.00 0.00 0.01 0.01 0.01 0.01 0.02 0.02 0.01 0.01 0.03 0.03 0.02 0.01 0.01 0.00 0.00 0.00 0.01 0.01 0.01 0.01 0.00 0.01 0.02 0.01 0.00 0.00 0.00 0.00
0.00 0.00 0.00 0.00 0.00 0.00 0.00 0.00 0.00 0.00 0.00 0.00 0.00 0.00 0.00 0.01 0.00 0.01 0.01 0.00 0.01 0.02 0.01 0.02 0.02 0.02 0.02 0.01 0.00 0.00 0.00 0.00 0.00 0.00 0.01 0.01 0.00 0.00 0.01 0.01 0.00 0.00 0.00
0.00 0.00 0.00 0.00 0.00 0.00 0.00 0.00 0.00 0.00 0.00 0.00 0.00 0.00 0.00 0.00 0.01 0.01 0.00 0.00 0.01 0.02 0.02 0.01 0.02 0.03 0.04 0.02 0.01 0.01 0.00 0.00 0.00 0.00 0.00 0.00 0.01 0.00 0.00 0.00 0.00 0.00 0.00
0.00 0.00 0.00 0.00 0.00 0.00 0.00 0.00 0.00 0.00 0.00 0.00 0.00 0.00 0.00 0.00 0.00 0.00 0.00 0.00 0.00 0.02 0.04 0.03 0.04 0.03 0.02 0.02 0.02 0.01 0.00 0.00 0.00 0.00 0.00 0.00 0.00 0.00 0.00 0.00 0.00 0.00 0.00
0.00 0.00 0.00 0.00 0.00 0.00 0.00 0.00 0.00 0.00 0.00 0.00 0.00 0.00 0.00 0.00 0.00 0.00 0.00 0.00 0.00 0.00 0.02 0.04 0.05 0.05 0.04 0.02 0.02 0.01 0.00 0.00 0.00 0.00 0.00 0.00 0.00 0.00 0.00 0.00 0.00 0.00 0.00
0.00 0.00 0.00 0.00 0.00 0.00 0.00 0.00 0.00 0.00 0.01 0.00 0.00 0.01 0.01 0.01 0.01 0.01 0.01 0.00 0.00 0.00 0.01 0.03 0.05 0.04 0.06 0.04 0.05 0.01 0.00 0.00 0.00 0.00 0.00 0.00 0.00 0.00 0.00 0.00 0.00 0.00 0.00
0.00 0.00 0.00 0.00 0.00 0.00 0.00 0.00 0.01 0.01 0.01 0.00 0.00 0.00 0.01 0.01 0.01 0.01 0.01 0.01 0.00 0.00 0.01 0.03 0.05 0.04 0.05 0.07 0.04 0.01 0.00 0.00 0.00 0.00 0.00 0.00 0.00 0.00 0.00 0.00 0.00 0.00 0.00
0.00 0.00 0.00 0.00 0.00 0.00 0.00 0.00 0.00 0.01 0.01 0.00 0.01 0.00 0.01 0.01 0.01 0.00 0.00 0.00 0.00 0.00 0.01 0.03 0.04 0.04 0.05 0.06 0.06 0.02 0.01 0.00 0.00 0.00 0.00 0.00 0.00 0.00 0.00 0.00 0.00 0.00 0.00
0.00 0.00 0.00 0.00 0.00 0.00 0.00 0.00 0.00 0.00 0.01 0.01 0.01 0.01 0.01 0.01 0.01 0.01 0.00 0.00 0.00 0.00 0.00 0.02 0.03 0.04 0.03 0.05 0.05 0.02 0.01 0.00 0.00 0.00 0.00 0.00 0.00 0.00 0.00 0.00 0.00 0.00 0.00
0.00 0.00 0.00 0.00 0.00 0.00 0.00 0.00 0.00 0.00 0.00 0.00 0.00 0.00 0.01 0.01 0.01 0.01 0.01 0.00 0.00 0.00 0.00 0.01 0.02 0.02 0.03 0.03 0.04 0.02 0.01 0.01 0.00 0.00 0.00 0.00 0.00 0.00 0.00 0.00 0.00 0.00 0.00
0.00 0.00 0.00 0.00 0.00 0.00 0.00 0.00 0.00 0.00 0.00 0.00 0.00 0.00 0.00 0.00 0.00 0.00 0.00 0.00 0.00 0.00 0.00 0.00 0.00 0.00 0.01 0.01 0.02 0.02 0.02 0.02 0.00 0.00 0.00 0.00 0.00 0.00 0.00 0.00 0.00 0.00 0.00
0.00 0.00 0.00 0.00 0.00 0.00 0.00 0.00 0.00 0.00 0.00 0.00 0.00 0.00 0.00 0.00 0.00 0.00 0.00 0.00 0.00 0.00 0.00 0.00 0.00 0.00 0.00 0.00 0.00 0.01 0.00 0.01 0.00 0.00 0.00 0.00 0.00 0.00 0.00 0.00 0.00 0.00 0.00
MSLP
1018.45 1017.77 1017.20 1016.59 1016.16 1015.89 1015.76 1015.71 1015.17 1014.73 1013.65 1012.91 1012.66 1012.29 1011.96 1011.64 1011.56 1011.30 1011.01 1011.58 1012.26 1012.65 1012.84 1012.92 1013.17 1013.54 1013.84 1014.23 1014.42 1014.75 1015.05 1015.44 1015.76 1016.03 1016.32 1016.58 1016.88 1017.11 1017.39 1017.69 1017.88 1018.11 1018.54
1019.41 1018.61 1017.77 1017.12 1016.71 1016.61 1016.07 1015.43 1015.12 1014.95 1014.37 1013.59 1012.68 1012.05 1011.59 1011.31 1010.65 1010.58 1010.47 1010.54 1011.42 1011.95 1012.16 1012.29 1012.56 1012.89 1013.18 1013.60 1014.00 1014.28 1014.66 1014.99 1015.41 1015.72 1016.10 1016.34 1016.69 1017.00 1017.21 1017.51 1017.81 1018.05 1018.53
1020.07 1019.42 1018.44 1017.86 1017.55 1017.23 1016.54 1015.63 1015.08 1014.69 1014.63 1014.21 1013.56 1012.19 1011.40 1010.88 1010.71 1009.99 1009.84 1009.87 1009.97 1011.02 1011.29 1011.51 1011.88 1012.23 1012.57 1012.89 1013.47 1013.73 1014.02 1014.53 1014.88 1015.31 1015.72 1016.04 1016.35 1016.73 1017.05 1017.39 1017.72 1018.04 1018.53
1020.74 1019.87 1018.98 1018.60 1018.45 1017.67 1017.19 1016.44 1015.72 1015.12 1014.63 1014.15 1013.66 1012.81 1012.08 1010.76 1010.19 1009.53 1009.28 1009.15 1009.13 1009.24 1010.53 1010.64 1010.83 1011.35 1011.70 1012.08 1012.66 1013.18 1013.39 1013.79 1014.34 1014.76 1015.23 1015.66 1015.95 1016.29 1016.70 1017.15 1017.54 1017.80 1018.28
1021.00 1020.42 1019.65 1019.39 1019.10 1018.19 1017.63 1017.11 1016.50 1016.09 1015.21 1014.20 1013.24 1012.63 1012.10 1011.21 1010.51 1009.58 1009.20 1008.77 1008.55 1008.70 1008.69 1009.47 1010.06 1010.28 1010.78 1011.14 1011.58 1012.24 1012.70 1013.14 1013.53 1014.02 1014.56 1015.20 1015.62 1015.92 1016.29 1016.63 1017.15 1017.58 1018.05
1021.23 1020.63 1019.93 1019.87 1019.41 1018.68 1018.03 1017.76 1017.31 1016.91 1016.23 1015.07 1013.88 1012.47 1011.33 1010.75 1010.09 1009.47 1008.91 1008.46 1008.11 1008.13 1008.28 1008.51 1008.99 1009.51 1009.82 1010.19 1010.63 1011.16 1011.71 1012.25 1012.84 1013.23 1013.73 1014.31 1015.00 1015.58 1015.89 1016.21 1016.61 1017.08 1017.71
1021.48 1020.83 1020.30 1019.97 1019.66 1019.19 1018.87 1018.40 1017.99 1017.27 1016.32 1015.89 1014.68 1012.75 1011.59 1010.28 1009.39 1008.61 1007.91 1007.69 1007.34 1007.30 1007.17 1007.75 1007.85 1007.48 1008.52 1009.28 1009.63 1010.05 1010.63 1011.19 1011.78 1012.31 1012.85 1013.47 1014.08 1014.75 1015.45 1015.79 1016.19 1016.58 1017.10
1021.66 1021.12 1020.97 1020.53 1020.29 1019.73 1019.31 1018.92 1018.68 1018.17 1017.26 1016.41 1016.03 1014.59 1010.91 1009.32 1008.43 1008.29 1006.95 1006.75 1006.60 1006.88 1006.15 1006.86 1007.09 1006.58 1006.41 1007.44 1008.22 1008.94 1009.43 1010.06 1010.73 1011.36 1011.96 1012.56 1013.28 1013.93 1014.47 1015.15 1015.66 1016.05 1016.51
1021.78 1021.55 1021.31 1021.12 1020.71 1020.32 1019.79 1019.50 1018.97 1018.54 1017.91 1017.22 1016.66 1016.18 1013.83 1011.28 1010.66 1009.02 1008.01 1007.74 1006.45 1005.79 1005.66 1005.91 1005.91 1005.86 1005.62 1005.55 1006.35 1007.47 1008.24 1008.79 1009.51 1010.34 1010.96 1011.62 1012.26 1013.00 1013.67 1014.27 1014.91 1015.53 1016.01
1021.90 1021.60 1021.44 1021.24 1020.97 1020.77 1020.32 1019.86 1019.36 1019.08 1018.50 1017.44 1016.75 1016.12 1015.51 1014.73 1013.30 1010.59 1009.27 1008.01 1007.31 1006.81 1005.11 1005.19 1004.77 1004.72 1004.82 1004.96 1005.21 1005.82 1006.74 1007.60 1008.34 1009.10 1009.97 1010.53 1011.30 1012.05 1012.79 1013.37 1014.07 1014.78 1015.49
1021.72 1021.46 1021.24 1020.89 1020.87 1020.82 1020.44 1020.10 1019.57 1019.10 1018.63 1017.87 1017.13 1016.39 1015.78 1014.87 1014.19 1012.90 1010.30 1008.53 1006.98 1005.68 1005.09 1004.33 1004.05 1003.73 1003.79 1003.91 1004.51 1004.85 1005.45 1006.41 1007.10 1007.85 1008.61 1009.39 1010.16 1011.01 1011.76 1012.51 1012.98 1013.73 1014.39
1021.46 1021.19 1021.14 1020.84 1020.69 1020.64 1020.37 1019.85 1019.42 1018.91 1018.75 1017.89 1017.03 1016.26 1015.47 1014.78 1013.74 1012.76 1011.32 1009.92 1008.24 1006.30 1005.45 1004.24 1003.40 1003.09 1003.29 1002.67 1003.08 1003.69 1004.56 1005.16 1006.14 1006.82 1007.40 1008.07 1008.87 1009.83 1010.60 1011.34 1012.00 1012.55 1013.38
1021.97 1021.56 1021.37 1021.34 1021.04 1020.78 1020.40 1019.73 1019.21 1018.77 1018.23 1017.60 1017.16 1016.46 1015.71 1014.85 1014.16 1012.94 1011.85 1010.13 1008.71 1006.68 1004.96 1004.11 1002.98 1002.22 1001.87 1002.15 1002.41 1002.71 1003.15 1003.57 1004.18 1005.47 1006.45 1007.18 1007.61 1008.53 1009.43 1010.04 1010.93 1011.57 1012.12
1022.11 1021.64 1021.85 1021.73 1021.23 1020.81 1020.34 1019.74 1019.07 1018.62 1018.21 1017.77 1017.18 1016.50 1015.61 1014.82 1014.02 1012.99 1011.99 1010.74 1008.68 1007.13 1005.01 1002.57 1002.22 1001.34 1000.06 1000.72 1000.95 1001.66 1002.27 1002.56 1003.16 1003.45 1004.61 1005.95 1006.70 1007.30 1008.05 1008.81 1009.59 1010.47 1011.07
1021.99 1021.92 1021.90 1021.16 1020.83 1020.76 1020.34 1019.62 1018.89 1018.31 1018.03 1017.34 1016.76 1016.16 1015.32 1014.37 1013.60 1013.10 1011.81 1011.20 1009.84 1007.50 1005.02 1002.78 1001.52 1000.09 999.64 999.77 999.99 1000.46 1000.52 1001.06 1001.64 1001.95 1002.62 1004.11 1005.00 1006.06 1006.88 1007.44 1008.23 1009.14 1009.91
1022.26 1022.09 1021.79 1020.97 1020.61 1020.63 1019.85 1019.33 1018.58 1018.25 1017.76 1016.97 1016.36 1015.71 1014.90 1014.02 1013.18 1012.60 1011.93 1010.98 1010.15 1008.79 1005.95 1004.30 1001.57 999.67 998.97 998.66 998.74 999.09 999.34 1000.04 1000.94 1001.39 1001.98 1002.72 1003.37 1004.20 1005.38 1006.13 1006.94 1007.82 1008.63
1022.31 1022.02 1021.83 1021.15 1020.62 1020.36 1019.58 1019.08 1018.66 1018.22 1017.50 1016.77 1016.00 1015.30 1014.48 1013.71 1012.74 1011.96 1011.27 1010.53 1009.75 1009.03 1006.73 1004.05 1001.85 999.53 998.29 997.40 997.45 997.92 998.50 998.78 999.29 999.86 1000.69 1001.17 1002.02 1002.98 1003.88 1004.78 1005.68 1006.47 1007.31
1022.35 1022.08 1021.96 1021.16 1020.63 1020.38 1019.67 1019.16 1018.78 1018.31 1017.45 1016.37 1015.62 1014.87 1014.02 1013.24 1012.43 1011.51 1010.51 1009.59 1008.89 1008.29 1006.79 1004.42 1002.04 999.09 997.00 996.22 996.17 996.46 997.11 997.24 997.91 998.81 999.57 1000.27 1001.02 1001.61 1002.40 1003.10 1004.12 1004.90 1005.84
1022.26 1021.91 1021.89 1021.21 1020.75 1020.32 1019.58 1019.27 1018.82 1018.04 1017.17 1016.26 1015.34 1014.52 1013.59 1012.86 1012.03 1011.20 1010.30 1009.24 1008.01 1007.01 1005.87 1004.41 1001.14 999.18 995.97 995.35 994.92 995.11 995.74 996.15 996.76 997.37 998.56 999.43 999.96 1000.36 1000.77 1001.91 1002.69 1003.75 1004.00
1022.20 1021.90 1021.66 1021.20 1020.85 1020.12 1019.52 1019.41 1018.67 1017.66 1016.79 1015.78 1015.07 1014.33 1013.49 1012.68 1011.89 1010.96 1009.92 1008.74 1007.48 1006.13 1004.75 1002.94 1000.45 998.04 995.71 994.13 993.77 993.97 994.39 994.94 995.64 996.49 997.12 997.96 998.73 999.18 999.64 1000.46 1001.66 1002.35 1002.64
1022.20 1021.82 1021.47 1021.12 1020.77 1019.86 1019.54 1019.45 1018.61 1017.48 1016.33 1015.28 1014.66 1013.97 1013.26 1012.51 1011.70 1011.19 1010.07 1008.50 1007.30 1005.73 1004.17 1002.60 1000.10 996.98 994.92 993.83 992.90 992.36 993.15 993.82 994.70 995.24 996.03 996.91 997.82 998.66 999.21 999.88 1000.51 1001.26 1001.82
1021.92 1021.53 1021.16 1020.92 1020.33 1019.65 1019.73 1019.39 1018.50 1017.32 1015.97 1015.00 1014.16 1013.53 1012.95 1012.10 1011.35 1010.39 1009.44 1008.17 1007.07 1005.55 1004.08 1002.78 1000.61 998.28 994.41 992.77 991.56 991.62 993.05 993.83 994.29 994.25 995.22 996.08 996.67 997.38 998.12 998.79 999.52 1000.18 1000.86
1021.57 1021.10 1020.78 1020.82 1019.93 1019.47 1019.49 1019.12 1018.29 1016.80 1015.40 1014.82 1014.06 1013.34 1012.58 1011.92 1011.15 1009.97 1008.75 1007.35 1006.18 1005.02 1004.32 1003.24 1000.92 998.82 996.59 994.44 991.55 991.66 992.33 992.70 993.00 993.63 994.27 995.14 996.06 996.61 997.09 997.63 998.19 999.05 999.71
1021.36 1020.81 1020.53 1020.56 1019.80 1019.32 1019.35 1019.02 1018.14 1016.36 1014.99 1014.50 1013.87 1013.26 1012.66 1011.92 1011.13 1010.01 1008.50 1006.67 1005.69 1004.55 1003.51 1002.36 1000.75 998.68 997.42 996.11 992.33 992.49 992.94 992.87 993.83 993.95 993.83 994.97 995.85 996.09 996.53 996.89 997.31 998.06 998.87
1021.27 1020.85 1020.63 1020.38 1019.76 1019.31 1019.17 1018.87 1018.01 1016.48 1015.21 1014.43 1013.58 1013.07 1012.65 1012.03 1011.19 1010.02 1008.67 1006.79 1005.69 1004.62 1002.99 1001.37 999.95 999.88 998.89 995.91 994.28 993.15 993.77 994.06 994.69 994.50 994.34 994.67 995.83 996.26 996.72 996.93 997.02 997.53 998.16
1021.39 1020.96 1020.81 1020.24 1019.87 1019.45 1019.16 1018.89 1018.12 1016.88 1015.72 1014.72 1013.60 1012.88 1012.49 1012.28 1011.27 1010.07 1008.86 1007.58 1005.17 1004.63 1003.27 1001.70 1000.72 999.76 997.96 997.35 996.66 994.54 994.19 994.95 995.16 995.23 995.29 995.16 995.24 995.51 996.56 996.90 997.02 997.47 997.95
Thickness
5635 5638 5640 5643 5645 5646 5645 5645 5647 5649 5655 5662 5662 5663 5667 5669 5669 5671 5674 5670 5665 5662 5660 5658 5655 5651 5648 5644 5642 5637 5633 5629 5626 5623 5621 5621 5620 5619 5618 5618 5618 5618 5616
5618 5621 5626 5629 5631 5631 5634 5637 5638 5639 5643 5648 5655 5658 5661 5663 5669 5669 5670 5669 5664 5660 5658 5657 5654 5652 5649 5644 5641 5638 5633 5630 5626 5622 5619 5619 5619 5617 5618 5617 5616 5615 5613
5606 5608 5612 5614 5615 5616 5619 5625 5628 5629 5631 5634 5638 5650 5655 5658 5659 5665 5666 5665 5666 5660 5658 5656 5653 5651 5648 5645 5640 5637 5635 5630 5627 5623 5620 5618 5617 5617 5616 5615 5614 5613 5609
5588 5592 5597 5598 5598 5601 5603 5607 5611 5615 5619 5623 5627 5634 5639 5651 5655 5660 5660 5662 5662 5662 5656 5656 5655 5651 5649 5646 5641 5636 5635 5632 5627 5624 5620 5618 5617 5616 5615 5613 5611 5611 5609
5574 5575 5577 5578 5579 5583 5586 5589 5593 5594 5600 5607 5617 5623 5628 5636 5641 5648 5652 5656 5657 5656 5657 5656 5652 5652 5650 5647 5645 5639 5635 5632 5629 5627 5623 5619 5615 5614 5614 5613 5610 5609 5607
5559 5559 5561 5559 5560 5564 5567 5567 5570 5571 5576 5586 5595 5607 5619 5626 5633 5638 5642 5647 5648 5649 5649 5649 5649 5647 5648 5647 5645 5642 5637 5633 5629 5627 5625 5622 5617 5613 5612 5611 5610 5608 5605
5539 5540 5541 5541 5541 5542 5543 5545 5548 5553 5559 5559 5571 5589 5598 5612 5621 5629 5638 5639 5643 5645 5648 5645 5645 5653 5646 5644 5643 5643 5640 5636 5631 5629 5625 5623 5620 5616 5611 5610 5608 5607 5605
5521 5521 5519 5518 5517 5519 5519 5519 5520 5524 5532 5538 5538 5549 5590 5601 5609 5614 5630 5631 5634 5634 5642 5639 5640 5648 5654 5645 5643 5642 5641 5638 5632 5628 5626 5623 5620 5616 5614 5610 5607 5606 5604
5503 5501 5499 5497 5496 5495 5497 5495 5497 5498 5502 5508 5511 5512 5540 5567 5569 5587 5600 5604 5617 5626 5634 5631 5634 5642 5646 5651 5646 5641 5640 5640 5636 5629 5625 5623 5620 5617 5613 5610 5607 5603 5601
5484 5483 5481 5479 5478 5476 5475 5474 5474 5473 5476 5484 5490 5494 5496 5504 5520 5549 5569 5581 5589 5599 5620 5625 5632 5637 5640 5643 5643 5642 5640 5638 5635 5631 5625 5623 5619 5616 5613 5610 5606 5602 5598
5469 5466 5464 5462 5459 5456 5455 5453 5452 5451 5451 5457 5462 5468 5473 5480 5487 5502 5530 5558 5571 5589 5601 5615 5622 5628 5633 5637 5636 5634 5639 5635 5634 5630 5627 5622 5619 5615 5612 5610 5608 5604 5600
5458 5455 5450 5448 5444 5440 5437 5435 5431 5428 5424 5430 5435 5441 5450 5458 5469 5478 5493 5513 5537 5562 5577 5597 5611 5618 5620 5632 5634 5633 5630 5632 5626 5626 5626 5623 5619 5614 5612 5610 5607 5606 5602
5441 5439 5435 5429 5425 5420 5417 5416 5415 5414 5413 5413 5411 5412 5418 5428 5438 5453 5465 5484 5502 5536 5555 5574 5597 5609 5614 5617 5623 5626 5626 5630 5629 5623 5621 5618 5618 5612 5611 5610 5606 5604 5603
5428 5426 5418 5412 5409 5407 5405 5403 5402 5401 5398 5395 5394 5396 5400 5405 5411 5426 5440 5453 5479 5499 5531 5570 5579 5598 5615 5615 5621 5617 5617 5621 5622 5624 5620 5616 5614 5612 5611 5611 5608 5604 5602
5416 5410 5404 5403 5398 5393 5392 5392 5393 5391 5385 5383 5382 5382 5387 5392 5398 5401 5416 5425 5445 5472 5506 5543 5560 5588 5602 5607 5615 5615 5620 5619 5621 5622 5620 5615 5614 5611 5610 5610 5608 5606 5603
5401 5396 5392 5391 5387 5381 5383 5383 5383 5380 5375 5373 5372 5373 5375 5380 5386 5390 5397 5406 5417 5435 5469 5503 5540 5566 5584 5596 5607 5611 5619 5616 5613 5612 5612 5611 5613 5610 5606 5608 5607 5605 5603
5388 5384 5379 5378 5376 5372 5374 5373 5371 5368 5366 5365 5365 5366 5368 5371 5378 5382 5388 5395 5402 5408 5439 5481 5513 5544 5565 5586 5598 5606 5609 5614 5613 5610 5608 5607 5607 5604 5604 5604 5603 5604 5601
5375 5371 5365 5366 5366 5362 5362 5361 5359 5356 5356 5358 5358 5359 5361 5363 5367 5373 5380 5389 5394 5399 5415 5447 5486 5527 5557 5581 5592 5597 5603 5611 5609 5604 5602 5600 5599 5601 5600 5603 5602 5603 5601
5363 5358 5353 5354 5353 5352 5353 5350 5348 5348 5348 5349 5350 5351 5352 5354 5357 5361 5367 5375 5384 5396 5406 5423 5472 5506 5552 5568 5582 5591 5598 5604 5606 5605 5598 5595 5593 5594 5599 5599 5602 5599 5605
5349 5346 5342 5342 5340 5342 5342 5337 5338 5340 5342 5343 5342 5342 5343 5343 5345 5349 5355 5365 5375 5387 5401 5418 5457 5496 5537 5566 5579 5586 5592 5600 5602 5604 5600 5598 5596 5594 5596 5599 5598 5600 5600
5334 5332 5330 5329 5327 5331 5329 5326 5328 5331 5335 5337 5335 5335 5334 5333 5333 5333 5340 5352 5361 5376 5392 5408 5442 5489 5529 5551 5569 5590 5591 5595 5597 5600 5600 5595 5593 5589 5591 5594 5596 5596 5597
5324 5322 5321 5318 5318 5320 5315 5313 5317 5321 5327 5329 5330 5329 5326 5324 5323 5328 5333 5342 5349 5361 5375 5387 5416 5453 5519 5553 5564 5575 5575 5575 5587 5598 5596 5594 5593 5592 5592 5593 5592 5591 5593
5317 5316 5314 5308 5311 5310 5305 5304 5306 5314 5321 5320 5321 5321 5321 5317 5317 5322 5329 5336 5341 5345 5351 5367 5400 5436 5472 5508 5549 5566 5571 5581 5588 5589 5589 5591 5586 5592 5591 5592 5590 5587 5587
5310 5309 5307 5301 5302 5301 5295 5294 5296 5307 5314 5312 5312 5312 5312 5310 5309 5313 5323 5333 5333 5340 5350 5367 5393 5432 5457 5481 5523 5531 5543 5562 5554 5567 5578 5578 5569 5581 5581 5586 5586 5584 5583
5302 5299 5295 5292 5292 5290 5285 5283 5286 5295 5301 5302 5305 5303 5302 5302 5300 5305 5312 5324 5327 5332 5354 5373 5399 5413 5438 5468 5496 5517 5521 5532 5536 5552 5558 5565 5557 5562 5564 5569 5574 5574 5575
5292 5290 5284 5282 5279 5276 5272 5269 5272 5278 5284 5289 5294 5296 5294 5291 5294 5297 5303 5311 5331 5335 5348 5367 5384 5407 5436 5449 5465 5493 5506 5513 5519 5533 5536 5547 5551 5556 5558 5555 5561 5561 5563